| time (UTC) | temp F | wind direction | speed MPH | gust MPH | rain 1hr in | rain 24hr in | rain mn in | humidity % | barometer mb |
| 20260505195704 | 58 | 303 | 12.0 | 19.0 | 0.00 | 0.00 | 0.00 | 54 | 1012.8 |
| 20260505195204 | 56 | 318 | 13.0 | 19.0 | 0.00 | 0.00 | 0.00 | 56 | 1012.9 |
| 20260505194704 | 56 | 9 | 12.0 | 18.0 | 0.00 | 0.00 | 0.00 | 57 | 1013.1 |
| 20260505194204 | 57 | 296 | 12.0 | 17.0 | 0.00 | 0.00 | 0.00 | 57 | 1013.0 |
| 20260505193204 | 56 | 294 | 11.0 | 19.0 | 0.00 | 0.00 | 0.00 | 56 | 1013.2 |
| 20260505192704 | 57 | 290 | 11.0 | 19.0 | 0.00 | 0.00 | 0.00 | 57 | 1013.1 |
| 20260505192205 | 57 | 321 | 9.0 | 19.0 | 0.00 | 0.00 | 0.00 | 57 | 1013.1 |
| 20260505191704 | 57 | 300 | 8.0 | 14.0 | 0.00 | 0.00 | 0.00 | 55 | 1013.1 |
| 20260505191203 | 57 | 327 | 8.0 | 13.0 | 0.00 | 0.00 | 0.00 | 55 | 1013.1 |
| 20260505190704 | 57 | 296 | 6.0 | 13.0 | 0.00 | 0.00 | 0.00 | 54 | 1013.1 |
| 20260505190204 | 58 | 302 | 6.0 | 13.0 | 0.00 | 0.00 | 0.00 | 54 | 1013.1 |
| 20260505185704 | 58 | 315 | 6.0 | 13.0 | 0.00 | 0.00 | 0.00 | 52 | 1013.1 |
| 20260505185205 | 58 | 298 | 5.0 | 13.0 | 0.00 | 0.00 | 0.00 | 45 | 1013.2 |
| 20260505184704 | 58 | 64 | 5.0 | 13.0 | 0.00 | 0.00 | 0.00 | 46 | 1013.1 |
| 20260505184204 | 58 | 75 | 5.0 | 12.0 | 0.00 | 0.00 | 0.00 | 46 | 1013.1 |
| 20260505183704 | 58 | 88 | 4.0 | 12.0 | 0.00 | 0.00 | 0.00 | 46 | 1013.1 |
| 20260505183204 | 58 | 12 | 5.0 | 9.0 | 0.00 | 0.00 | 0.00 | 45 | 1013.1 |
| 20260505182704 | 59 | 13 | 4.0 | 11.0 | 0.00 | 0.00 | 0.00 | 45 | 1013.1 |
| 20260505182204 | 60 | 57 | 4.0 | 12.0 | 0.00 | 0.00 | 0.00 | 44 | 1013.0 |
| 20260505181205 | 58 | 80 | 5.0 | 14.0 | 0.00 | 0.00 | 0.00 | 45 | 1013.0 |
| 20260505180705 | 58 | 24 | 4.0 | 14.0 | 0.00 | 0.00 | 0.00 | 47 | 1013.0 |
| 20260505180204 | 57 | 52 | 7.0 | 15.0 | 0.00 | 0.00 | 0.00 | 48 | 1013.1 |
| 20260505175704 | 57 | 75 | 8.0 | 15.0 | 0.00 | 0.00 | 0.00 | 49 | 1013.1 |
| 20260505175204 | 57 | 84 | 6.0 | 15.0 | 0.00 | 0.00 | 0.00 | 48 | 1013.0 |
| 20260505174704 | 57 | 48 | 5.0 | 12.0 | 0.00 | 0.00 | 0.00 | 46 | 1012.9 |
| 20260505174204 | 57 | 32 | 5.0 | 14.0 | 0.00 | 0.00 | 0.00 | 46 | 1012.9 |
| 20260505173704 | 57 | 77 | 6.0 | 14.0 | 0.00 | 0.00 | 0.00 | 48 | 1012.9 |
| 20260505173204 | 56 | 87 | 6.0 | 12.0 | 0.00 | 0.00 | 0.00 | 50 | 1012.9 |
| 20260505172704 | 57 | 34 | 6.0 | 12.0 | 0.00 | 0.00 | 0.00 | 49 | 1012.8 |
| 20260505171704 | 57 | 78 | 6.0 | 15.0 | 0.00 | 0.00 | 0.00 | 50 | 1012.6 |
| 20260505171205 | 56 | 61 | 7.0 | 15.0 | 0.00 | 0.00 | 0.00 | 51 | 1012.6 |
| 20260505170704 | 56 | 78 | 8.0 | 15.0 | 0.00 | 0.00 | 0.00 | 52 | 1012.8 |
| 20260505170204 | 56 | 88 | 6.0 | 13.0 | 0.00 | 0.00 | 0.00 | 52 | 1012.6 |
| 20260505165704 | 55 | 88 | 6.0 | 12.0 | 0.00 | 0.00 | 0.00 | 53 | 1012.6 |
| 20260505165204 | 55 | 65 | 6.0 | 15.0 | 0.00 | 0.00 | 0.00 | 53 | 1012.6 |
| 20260505164704 | 55 | 83 | 7.0 | 15.0 | 0.00 | 0.00 | 0.00 | 53 | 1012.6 |
| 20260505164204 | 55 | 78 | 7.0 | 17.0 | 0.00 | 0.00 | 0.00 | 53 | 1012.6 |
| 20260505163704 | 55 | 72 | 7.0 | 17.0 | 0.00 | 0.00 | 0.00 | 54 | 1012.5 |
| 20260505163204 | 55 | 55 | 6.0 | 13.0 | 0.00 | 0.00 | 0.00 | 55 | 1012.6 |
| 20260505162204 | 55 | 72 | 6.0 | 14.0 | 0.00 | 0.00 | 0.00 | 53 | 1012.5 |
| 20260505161704 | 55 | 69 | 6.0 | 13.0 | 0.00 | 0.00 | 0.00 | 52 | 1012.4 |
| 20260505161204 | 55 | 61 | 6.0 | 13.0 | 0.00 | 0.00 | 0.00 | 52 | 1012.4 |
| 20260505160703 | 55 | 73 | 5.0 | 12.0 | 0.00 | 0.00 | 0.00 | 52 | 1012.3 |
| 20260505160204 | 55 | 65 | 4.0 | 8.0 | 0.00 | 0.00 | 0.00 | 53 | 1012.3 |
| 20260505153204 | 53 | 49 | 5.0 | 9.0 | 0.00 | 0.00 | 0.00 | 56 | 1012.3 |
| 20260505152704 | 53 | 66 | 4.0 | 9.0 | 0.00 | 0.00 | 0.00 | 57 | 1012.2 |
| 20260505152204 | 53 | 70 | 4.0 | 9.0 | 0.00 | 0.00 | 0.00 | 57 | 1012.2 |
| 20260505151704 | 52 | 45 | 4.0 | 7.0 | 0.00 | 0.00 | 0.00 | 58 | 1012.2 |
| 20260505151204 | 51 | 49 | 3.0 | 7.0 | 0.00 | 0.00 | 0.00 | 60 | 1012.2 |
| 20260505150704 | 51 | 94 | 3.0 | 8.0 | 0.00 | 0.00 | 0.00 | 64 | 1012.2 |
| 20260505150204 | 50 | 26 | 3.0 | 8.0 | 0.00 | 0.00 | 0.00 | 66 | 1012.3 |
| 20260505130204 | 46 | 315 | 5.0 | 8.0 | 0.00 | 0.00 | 0.00 | 81 | 1011.6 |
| 20260505124704 | 47 | 321 | 4.0 | 5.0 | 0.00 | 0.00 | 0.00 | 81 | 1011.8 |
| 20260505124205 | 47 | 324 | 3.0 | 5.0 | 0.00 | 0.00 | 0.00 | 81 | 1011.8 |
| 20260505123704 | 47 | 325 | 2.0 | 5.0 | 0.00 | 0.00 | 0.00 | 81 | 1011.8 |
| 20260505123204 | 47 | 325 | 3.0 | 5.0 | 0.00 | 0.00 | 0.00 | 81 | 1011.8 |
| 20260505122705 | 46 | 325 | 2.0 | 5.0 | 0.00 | 0.00 | 0.00 | 81 | 1011.8 |
| 20260505122204 | 46 | 325 | 2.0 | 4.0 | 0.00 | 0.00 | 0.00 | 81 | 1011.8 |
| 20260505121704 | 46 | 325 | 2.0 | 4.0 | 0.00 | 0.00 | 0.00 | 81 | 1011.8 |
| 20260505121204 | 46 | 325 | 2.0 | 4.0 | 0.00 | 0.00 | 0.00 | 81 | 1011.8 |
| 20260505120704 | 46 | 325 | 2.0 | 3.0 | 0.00 | 0.00 | 0.00 | 81 | 1011.8 |
| 20260505120205 | 46 | 325 | 1.0 | 3.0 | 0.00 | 0.00 | 0.00 | 81 | 1011.8 |
| 20260505115704 | 46 | 325 | 2.0 | 3.0 | 0.00 | 0.00 | 0.00 | 82 | 1011.9 |
| 20260505115204 | 45 | 325 | 1.0 | 2.0 | 0.00 | 0.00 | 0.00 | 82 | 1011.9 |
| 20260505114705 | 45 | 325 | 0.0 | 3.0 | 0.00 | 0.00 | 0.00 | 82 | 1012.0 |
| 20260505114204 | 45 | 325 | 1.0 | 4.0 | 0.00 | 0.00 | 0.00 | 82 | 1012.1 |
| 20260505113704 | 45 | 325 | 1.0 | 4.0 | 0.00 | 0.00 | 0.00 | 82 | 1012.1 |
| 20260505113204 | 45 | 325 | 1.0 | 4.0 | 0.00 | 0.00 | 0.00 | 82 | 1012.1 |
| 20260505112705 | 45 | 325 | 1.0 | 5.0 | 0.00 | 0.00 | 0.00 | 82 | 1012.0 |
| 20260505111704 | 45 | 325 | 2.0 | 5.0 | 0.00 | 0.00 | 0.00 | 83 | 1012.0 |
| 20260505111204 | 45 | 325 | 2.0 | 5.0 | 0.00 | 0.00 | 0.00 | 82 | 1012.0 |
| 20260505110706 | 45 | 325 | 2.0 | 5.0 | 0.00 | 0.00 | 0.00 | 82 | 1012.0 |
| 20260505110204 | 45 | 325 | 3.0 | 9.0 | 0.00 | 0.00 | 0.00 | 82 | 1011.9 |
| 20260505101705 | 45 | 317 | 8.0 | 15.0 | 0.00 | 0.00 | 0.00 | 82 | 1011.9 |
| 20260505101204 | 45 | 324 | 8.0 | 11.0 | 0.00 | 0.00 | 0.00 | 82 | 1011.9 |
| 20260505100204 | 45 | 318 | 8.0 | 14.0 | 0.00 | 0.00 | 0.00 | 82 | 1012.0 |
| 20260505095704 | 45 | 334 | 8.0 | 14.0 | 0.00 | 0.00 | 0.00 | 83 | 1012.0 |
| 20260505095204 | 45 | 317 | 8.0 | 11.0 | 0.00 | 0.00 | 0.00 | 83 | 1012.0 |
| 20260505094705 | 45 | 321 | 7.0 | 11.0 | 0.00 | 0.00 | 0.00 | 82 | 1012.1 |
| 20260505094204 | 45 | 327 | 6.0 | 9.0 | 0.00 | 0.00 | 0.00 | 82 | 1012.1 |
| 20260505093204 | 44 | 328 | 5.0 | 8.0 | 0.00 | 0.00 | 0.00 | 82 | 1012.2 |
| 20260505092705 | 44 | 327 | 5.0 | 8.0 | 0.00 | 0.00 | 0.00 | 81 | 1012.2 |
| 20260505092204 | 44 | 327 | 4.0 | 8.0 | 0.00 | 0.00 | 0.00 | 81 | 1012.3 |
| 20260505091704 | 45 | 326 | 4.0 | 8.0 | 0.00 | 0.00 | 0.00 | 81 | 1012.3 |
| 20260505091205 | 45 | 325 | 4.0 | 9.0 | 0.00 | 0.00 | 0.00 | 81 | 1012.3 |
| 20260505090705 | 45 | 325 | 5.0 | 9.0 | 0.00 | 0.00 | 0.00 | 81 | 1012.4 |
| 20260505090204 | 45 | 320 | 4.0 | 8.0 | 0.00 | 0.00 | 0.00 | 81 | 1012.4 |
| 20260505085704 | 45 | 327 | 4.0 | 9.0 | 0.00 | 0.00 | 0.00 | 81 | 1012.5 |
| 20260505085204 | 45 | 327 | 5.0 | 9.0 | 0.00 | 0.00 | 0.00 | 81 | 1012.5 |
| 20260505084705 | 45 | 323 | 5.0 | 11.0 | 0.00 | 0.00 | 0.00 | 81 | 1012.5 |
| 20260505084204 | 45 | 331 | 5.0 | 11.0 | 0.00 | 0.00 | 0.00 | 81 | 1012.6 |
| 20260505083205 | 45 | 321 | 5.0 | 8.0 | 0.00 | 0.00 | 0.00 | 81 | 1012.8 |
| 20260505082706 | 45 | 317 | 4.0 | 8.0 | 0.00 | 0.00 | 0.00 | 81 | 1012.8 |
| 20260505082204 | 45 | 330 | 4.0 | 10.0 | 0.00 | 0.00 | 0.00 | 81 | 1012.9 |
| 20260505081704 | 45 | 330 | 6.0 | 10.0 | 0.00 | 0.00 | 0.00 | 81 | 1012.9 |
| 20260505081204 | 45 | 330 | 6.0 | 10.0 | 0.00 | 0.00 | 0.00 | 82 | 1013.0 |
| 20260505080704 | 45 | 323 | 5.0 | 11.0 | 0.00 | 0.00 | 0.00 | 81 | 1013.0 |
| 20260505075704 | 46 | 328 | 7.0 | 12.0 | 0.00 | 0.00 | 0.00 | 81 | 1013.0 |
| 20260505075204 | 46 | 321 | 8.0 | 12.0 | 0.00 | 0.00 | 0.00 | 81 | 1013.0 |
| 20260505074704 | 46 | 324 | 8.0 | 12.0 | 0.00 | 0.00 | 0.00 | 81 | 1013.1 |
| 20260505074204 | 46 | 317 | 8.0 | 12.0 | 0.00 | 0.00 | 0.00 | 80 | 1013.0 |
| 20260505073204 | 46 | 336 | 7.0 | 11.0 | 0.00 | 0.00 | 0.00 | 80 | 1013.0 |
| 20260505072704 | 46 | 317 | 7.0 | 10.0 | 0.00 | 0.00 | 0.00 | 80 | 1013.0 |
| 20260505072204 | 46 | 325 | 6.0 | 10.0 | 0.00 | 0.00 | 0.00 | 80 | 1013.0 |
| 20260505071704 | 46 | 321 | 6.0 | 11.0 | 0.00 | 0.00 | 0.00 | 80 | 1013.0 |
| 20260505071203 | 46 | 313 | 7.0 | 11.0 | 0.00 | 0.00 | 0.00 | 80 | 1013.0 |
| 20260505070704 | 46 | 309 | 7.0 | 13.0 | 0.00 | 0.00 | 0.00 | 80 | 1013.0 |
| 20260505070204 | 46 | 310 | 7.0 | 14.0 | 0.00 | 0.00 | 0.00 | 79 | 1013.1 |
| 20260505065704 | 46 | 310 | 9.0 | 16.0 | 0.00 | 0.00 | 0.00 | 79 | 1013.1 |
| 20260505065204 | 46 | 286 | 10.0 | 16.0 | 0.00 | 0.00 | 0.00 | 80 | 1013.0 |
| 20260505064704 | 46 | 315 | 10.0 | 16.0 | 0.00 | 0.00 | 0.00 | 79 | 1013.1 |
| 20260505064204 | 46 | 319 | 9.0 | 16.0 | 0.00 | 0.00 | 0.00 | 79 | 1013.1 |
| 20260505063704 | 46 | 328 | 10.0 | 16.0 | 0.00 | 0.00 | 0.00 | 79 | 1013.1 |
| 20260505063205 | 46 | 327 | 10.0 | 15.0 | 0.00 | 0.00 | 0.00 | 79 | 1013.1 |
| 20260505062704 | 46 | 316 | 10.0 | 16.0 | 0.00 | 0.00 | 0.00 | 79 | 1013.0 |
| 20260505062204 | 46 | 313 | 10.0 | 16.0 | 0.00 | 0.00 | 0.00 | 78 | 1013.0 |
| 20260505061204 | 47 | 304 | 8.0 | 11.0 | 0.00 | 0.00 | 0.00 | 76 | 1013.0 |
| 20260505055705 | 47 | 321 | 7.0 | 11.0 | 0.00 | 0.00 | 0.00 | 76 | 1012.9 |
| 20260505055204 | 47 | 307 | 5.0 | 9.0 | 0.00 | 0.00 | 0.00 | 76 | 1013.0 |
| 20260505054704 | 47 | 311 | 4.0 | 9.0 | 0.00 | 0.00 | 0.00 | 75 | 1013.1 |
| 20260505054204 | 47 | 313 | 4.0 | 12.0 | 0.00 | 0.00 | 0.00 | 75 | 1013.0 |
| 20260505053704 | 47 | 323 | 6.0 | 12.0 | 0.00 | 0.00 | 0.00 | 76 | 1013.0 |
| 20260505053204 | 47 | 323 | 8.0 | 12.0 | 0.00 | 0.00 | 0.00 | 76 | 1013.0 |
| 20260505052204 | 47 | 311 | 8.0 | 12.0 | 0.00 | 0.00 | 0.00 | 76 | 1012.9 |
| 20260505051705 | 47 | 304 | 6.0 | 10.0 | 0.00 | 0.00 | 0.00 | 75 | 1012.9 |
| 20260505051204 | 47 | 303 | 5.0 | 11.0 | 0.00 | 0.00 | 0.00 | 75 | 1013.0 |
| 20260505050703 | 47 | 295 | 6.0 | 14.0 | 0.00 | 0.00 | 0.00 | 74 | 1013.1 |
| 20260505050205 | 47 | 312 | 8.0 | 14.0 | 0.00 | 0.00 | 0.00 | 74 | 1013.1 |
| 20260505041704 | 48 | 317 | 7.0 | 10.0 | 0.00 | 0.00 | 0.00 | 74 | 1013.0 |
| 20260505041204 | 48 | 315 | 7.0 | 10.0 | 0.00 | 0.00 | 0.00 | 74 | 1012.9 |
| 20260505035706 | 49 | 312 | 8.0 | 15.0 | 0.00 | 0.00 | 0.00 | 75 | 1012.9 |
| 20260505035204 | 49 | 307 | 10.0 | 15.0 | 0.00 | 0.00 | 0.00 | 74 | 1012.8 |
| 20260505034704 | 49 | 302 | 11.0 | 15.0 | 0.00 | 0.00 | 0.00 | 74 | 1012.8 |
| 20260505034204 | 49 | 311 | 10.0 | 15.0 | 0.00 | 0.00 | 0.00 | 74 | 1012.8 |
| 20260505033205 | 49 | 322 | 10.0 | 16.0 | 0.00 | 0.00 | 0.00 | 73 | 1012.6 |
| 20260505032704 | 49 | 310 | 11.0 | 16.0 | 0.00 | 0.00 | 0.00 | 73 | 1012.6 |
| 20260505032204 | 50 | 323 | 11.0 | 16.0 | 0.00 | 0.00 | 0.00 | 72 | 1012.6 |
| 20260505031704 | 50 | 304 | 10.0 | 14.0 | 0.00 | 0.00 | 0.00 | 71 | 1012.6 |
| 20260505031205 | 50 | 333 | 10.0 | 14.0 | 0.00 | 0.00 | 0.00 | 70 | 1012.6 |
| 20260505030704 | 51 | 309 | 11.0 | 15.0 | 0.00 | 0.00 | 0.00 | 69 | 1012.6 |
| 20260505030204 | 51 | 314 | 10.0 | 15.0 | 0.00 | 0.00 | 0.00 | 67 | 1012.6 |
| 20260505025704 | 52 | 307 | 10.0 | 15.0 | 0.00 | 0.00 | 0.00 | 65 | 1012.5 |
| 20260505025204 | 53 | 336 | 9.0 | 13.0 | 0.00 | 0.00 | 0.00 | 62 | 1012.5 |
| 20260505024704 | 54 | 327 | 7.0 | 13.0 | 0.00 | 0.00 | 0.00 | 53 | 1012.4 |
| 20260505023205 | 55 | 16 | 9.0 | 16.0 | 0.00 | 0.00 | 0.00 | 51 | 1012.4 |
| 20260505022704 | 55 | 3 | 9.0 | 16.0 | 0.00 | 0.00 | 0.00 | 50 | 1012.3 |
| 20260505022204 | 55 | 28 | 9.0 | 14.0 | 0.00 | 0.00 | 0.00 | 50 | 1012.3 |
| 20260505021705 | 56 | 40 | 7.0 | 14.0 | 0.00 | 0.00 | 0.00 | 49 | 1012.2 |
| 20260505021204 | 56 | 30 | 7.0 | 16.0 | 0.00 | 0.00 | 0.00 | 48 | 1012.2 |
| 20260505020704 | 56 | 30 | 8.0 | 17.0 | 0.00 | 0.00 | 0.00 | 47 | 1012.2 |
| 20260505020205 | 56 | 41 | 9.0 | 17.0 | 0.00 | 0.00 | 0.00 | 47 | 1012.2 |
| 20260505015704 | 56 | 42 | 9.0 | 17.0 | 0.00 | 0.00 | 0.00 | 47 | 1012.2 |
| 20260505015204 | 56 | 25 | 9.0 | 19.0 | 0.00 | 0.00 | 0.00 | 46 | 1012.2 |
| 20260505014704 | 56 | 24 | 11.0 | 19.0 | 0.00 | 0.00 | 0.00 | 46 | 1012.3 |
| 20260505013205 | 58 | 13 | 10.0 | 21.0 | 0.00 | 0.00 | 0.00 | 44 | 1012.2 |
| 20260505012704 | 57 | 51 | 12.0 | 21.0 | 0.00 | 0.00 | 0.00 | 44 | 1012.2 |
| 20260505012204 | 58 | 40 | 11.0 | 19.0 | 0.00 | 0.00 | 0.00 | 43 | 1012.2 |
| 20260505011704 | 58 | 23 | 10.0 | 19.0 | 0.00 | 0.00 | 0.00 | 42 | 1012.2 |
| 20260505011204 | 59 | 57 | 10.0 | 18.0 | 0.00 | 0.00 | 0.00 | 40 | 1012.2 |
| 20260505010205 | 60 | 34 | 10.0 | 27.0 | 0.00 | 0.00 | 0.00 | 38 | 1012.2 |
| 20260505005704 | 60 | 57 | 10.0 | 27.0 | 0.00 | 0.00 | 0.00 | 36 | 1012.2 |
| 20260505005205 | 60 | 88 | 11.0 | 15.0 | 0.00 | 0.00 | 0.00 | 37 | 1011.9 |
| 20260505004204 | 61 | 57 | 9.0 | 17.0 | 0.00 | 0.00 | 0.00 | 36 | 1012.0 |
| 20260505003705 | 61 | 83 | 9.0 | 17.0 | 0.00 | 0.00 | 0.00 | 37 | 1012.0 |
| 20260505003204 | 61 | 70 | 8.0 | 18.0 | 0.00 | 0.00 | 0.00 | 36 | 1012.0 |
| 20260505002704 | 61 | 70 | 9.0 | 18.0 | 0.00 | 0.00 | 0.00 | 37 | 1012.0 |
| 20260505002204 | 62 | 59 | 9.0 | 15.0 | 0.00 | 0.00 | 0.00 | 36 | 1012.0 |
| 20260505001704 | 62 | 55 | 9.0 | 15.0 | 0.00 | 0.00 | 0.00 | 36 | 1011.8 |
| 20260505001204 | 62 | 90 | 9.0 | 15.0 | 0.00 | 0.00 | 0.00 | 36 | 1011.6 |
| 20260505000706 | 62 | 65 | 9.0 | 19.0 | 0.00 | 0.00 | 0.00 | 35 | 1011.8 |
| 20260505000204 | 63 | 38 | 9.0 | 19.0 | 0.00 | 0.00 | 0.00 | 35 | 1011.8 |
| 20260504235705 | 63 | 72 | 9.0 | 19.0 | 0.00 | 0.00 | 0.00 | 35 | 1011.6 |
| 20260504235204 | 63 | 57 | 9.0 | 16.0 | 0.00 | 0.00 | 0.00 | 35 | 1011.6 |
| 20260504234704 | 63 | 59 | 9.0 | 16.0 | 0.00 | 0.00 | 0.00 | 34 | 1011.6 |
| 20260504234204 | 63 | 88 | 7.0 | 16.0 | 0.00 | 0.00 | 0.00 | 35 | 1011.6 |
| 20260504233704 | 61 | 103 | 7.0 | 16.0 | 0.00 | 0.00 | 0.00 | 40 | 1011.8 |
| 20260504232205 | 60 | 313 | 11.0 | 17.0 | 0.00 | 0.00 | 0.00 | 44 | 1011.8 |
| 20260504231704 | 60 | 271 | 11.0 | 17.0 | 0.00 | 0.00 | 0.00 | 44 | 1011.8 |
| 20260504231205 | 61 | 288 | 11.0 | 16.0 | 0.00 | 0.00 | 0.00 | 44 | 1011.9 |
| 20260504230204 | 61 | 317 | 12.0 | 19.0 | 0.00 | 0.00 | 0.00 | 44 | 1011.6 |
| 20260504225705 | 62 | 275 | 13.0 | 19.0 | 0.00 | 0.00 | 0.00 | 42 | 1011.8 |
| 20260504225204 | 62 | 280 | 12.0 | 19.0 | 0.00 | 0.00 | 0.00 | 41 | 1011.8 |
| 20260504224704 | 62 | 296 | 12.0 | 19.0 | 0.00 | 0.00 | 0.00 | 43 | 1011.6 |
| 20260504224204 | 61 | 275 | 12.0 | 19.0 | 0.00 | 0.00 | 0.00 | 44 | 1011.8 |
| 20260504223704 | 60 | 271 | 13.0 | 19.0 | 0.00 | 0.00 | 0.00 | 43 | 1011.9 |
| 20260504223204 | 61 | 336 | 13.0 | 19.0 | 0.00 | 0.00 | 0.00 | 43 | 1012.0 |
| 20260504222205 | 61 | 282 | 11.0 | 18.0 | 0.00 | 0.00 | 0.00 | 43 | 1012.1 |
| 20260504221704 | 61 | 342 | 11.0 | 21.0 | 0.00 | 0.00 | 0.00 | 43 | 1012.1 |
| 20260504221206 | 60 | 294 | 12.0 | 21.0 | 0.00 | 0.00 | 0.00 | 44 | 1012.1 |
| 20260504220704 | 60 | 309 | 12.0 | 21.0 | 0.00 | 0.00 | 0.00 | 44 | 1012.2 |
| 20260504220204 | 61 | 305 | 12.0 | 20.0 | 0.00 | 0.00 | 0.00 | 43 | 1012.2 |
| 20260504215704 | 61 | 303 | 12.0 | 20.0 | 0.00 | 0.00 | 0.00 | 43 | 1012.3 |
| 20260504215206 | 61 | 300 | 12.0 | 22.0 | 0.00 | 0.00 | 0.00 | 43 | 1012.3 |
| 20260504214704 | 61 | 333 | 13.0 | 22.0 | 0.00 | 0.00 | 0.00 | 42 | 1012.2 |
| 20260504213205 | 61 | 311 | 13.0 | 22.0 | 0.00 | 0.00 | 0.00 | 43 | 1012.4 |
| 20260504212704 | 62 | 275 | 13.0 | 22.0 | 0.00 | 0.00 | 0.00 | 44 | 1012.3 |
| 20260504212205 | 62 | 297 | 13.0 | 22.0 | 0.00 | 0.00 | 0.00 | 44 | 1012.3 |
| 20260504211704 | 62 | 321 | 14.0 | 21.0 | 0.00 | 0.00 | 0.00 | 44 | 1012.4 |
| 20260504210704 | 61 | 302 | 13.0 | 17.0 | 0.00 | 0.00 | 0.00 | 44 | 1012.4 |
| 20260504210204 | 61 | 328 | 11.0 | 19.0 | 0.00 | 0.00 | 0.00 | 44 | 1012.4 |
| 20260504205704 | 61 | 310 | 13.0 | 21.0 | 0.00 | 0.00 | 0.00 | 45 | 1012.6 |
| 20260504205206 | 62 | 266 | 14.0 | 21.0 | 0.00 | 0.00 | 0.00 | 44 | 1012.5 |
| 20260504204204 | 61 | 307 | 14.0 | 21.0 | 0.00 | 0.00 | 0.00 | 45 | 1012.5 |
| 20260504203704 | 61 | 290 | 12.0 | 21.0 | 0.00 | 0.00 | 0.00 | 45 | 1012.5 |
| 20260504202704 | 61 | 302 | 11.0 | 19.0 | 0.00 | 0.00 | 0.00 | 46 | 1012.5 |
| 20260504201704 | 61 | 319 | 10.0 | 19.0 | 0.00 | 0.00 | 0.00 | 46 | 1012.5 |
| 20260504200704 | 60 | 328 | 13.0 | 20.0 | 0.00 | 0.00 | 0.00 | 47 | 1012.8 |
| 20260504200204 | 60 | 320 | 11.0 | 20.0 | 0.00 | 0.00 | 0.00 | 48 | 1012.6 |